Tracking 22873 objects as of 23-Apr-2021
HD Live streaming from Space Station
objects crossing your sky now

FAST

Track FAST now!
10-day predictions
FAST is classified as:


NORAD ID: 24285
Int'l Code: 1996-049A
Perigee: 353.2 km
Apogee: 3,428.9 km
Inclination: 83.0 °
Period: 124.6 minutes
Semi major axis: 8262 km
RCS: 1.3393 m2 (large)
Launch date: August 21, 1996
Source: United States (US)
Launch site: AIR FORCE WESTERN TEST RANGE (AFWTR)

Designed to study Earth's aurora.
aabbcc
Your satellite tracking list
Your tracking list is empty




NASA's NSSDC Master Catalog

Two Line Element Set (TLE):
1 24285U 96049A   21113.15537682  .00001510  00000-0  12128-3 0  9998
2 24285  82.9590 338.0160 1861316 339.9560  13.6785 11.56037774 13092
Source of the keplerian elements: AFSPC